When you browse on this site, cookies collect data to enhance your experience and personalize the content and advertising you see.
Visit our Privacy Policy to learn more. By continuing to use the site, you agree to this use of cookies and data.
  • In Romania
  • List of Countries
  • For 7 days
  • Water Temperature
  • Weather Map
  • Weather Widgets
  • user-avatar
    Login

    Hourly Weather Passo Fundo

    Today, 18 November, Monday

    Time Temperature Precipitation Wind Pressure Humidity
    00:00 +17°C° 0 mm 4 mps 704 mmHg 67%
    01:00 +15°C° 0 mm 4 mps 704 mmHg 72%
    02:00 +15°C° 0 mm 4 mps 704 mmHg 77%
    03:00 +15°C° 0 mm 4 mps 704 mmHg 83%
    04:00 +15°C° 0 mm 4 mps 704 mmHg 84%
    05:00 +15°C° 0 mm 4 mps 705 mmHg 86%
    06:00 +15°C° 0 mm 4 mps 705 mmHg 87%
    07:00 +18°C° 0 mm 4 mps 706 mmHg 82%
    08:00 +20°C° 0 mm 4 mps 706 mmHg 78%
    09:00 +21°C° 0 mm 4 mps 707 mmHg 73%
    10:00 +23°C° 0 mm 4 mps 707 mmHg 68%
    11:00 +26°C° 0 mm 3 mps 707 mmHg 63%
    12:00 +28°C° 0 mm 2 mps 707 mmHg 58%
    13:00 +28°C° 0.1 mm 2 mps 707 mmHg 56%
    14:00 +29°C° 0.1 mm 1 mps 707 mmHg 54%
    15:00 +30°C° 0.1 mm 1 mps 706 mmHg 52%
    16:00 +29°C° 0 mm 1 mps 706 mmHg 57%
    17:00 +28°C° 0 mm 1 mps 706 mmHg 61%
    18:00 +27°C° 0 mm 1 mps 705 mmHg 65%
    19:00 +25°C° 0 mm 2 mps 706 mmHg 67%
    20:00 +24°C° 0 mm 2 mps 706 mmHg 69%
    21:00 +21°C° 0 mm 2 mps 706 mmHg 71%
    22:00 +20°C° 0 mm 2 mps 706 mmHg 72%
    23:00 +19°C° 0 mm 3 mps 706 mmHg 73%

    Tomorrow, 19 November, Tuesday

    Time Temperature Precipitation Wind Pressure Humidity
    00:00 +18°C° 0 mm 3 mps 706 mmHg 73%
    01:00 +18°C° 0 mm 3 mps 706 mmHg 73%
    02:00 +17°C° 0 mm 3 mps 706 mmHg 73%
    03:00 +17°C° 0 mm 4 mps 705 mmHg 73%
    04:00 +15°C° 0 mm 4 mps 706 mmHg 74%
    05:00 +15°C° 0 mm 4 mps 706 mmHg 75%
    06:00 +15°C° 0 mm 4 mps 706 mmHg 76%
    07:00 +18°C° 0 mm 4 mps 707 mmHg 72%
    08:00 +20°C° 0 mm 4 mps 707 mmHg 67%
    09:00 +22°C° 0 mm 3 mps 708 mmHg 63%
    10:00 +25°C° 0 mm 3 mps 708 mmHg 58%
    11:00 +27°C° 0 mm 2 mps 708 mmHg 53%
    12:00 +29°C° 0 mm 1 mps 707 mmHg 48%
    13:00 +30°C° 0 mm 1 mps 707 mmHg 46%
    14:00 +30°C° 0 mm 1 mps 707 mmHg 43%
    15:00 +30°C° 0 mm 1 mps 706 mmHg 41%
    16:00 +29°C° 0 mm 1 mps 706 mmHg 46%
    17:00 +28°C° 0 mm 1 mps 706 mmHg 52%
    18:00 +27°C° 0 mm 1 mps 705 mmHg 57%
    19:00 +25°C° 0 mm 1 mps 706 mmHg 60%
    20:00 +23°C° 0 mm 2 mps 706 mmHg 62%
    21:00 +21°C° 0 mm 2 mps 706 mmHg 65%
    22:00 +20°C° 0 mm 2 mps 706 mmHg 68%
    23:00 +19°C° 0 mm 3 mps 706 mmHg 72%

    Day after tomorrow, 20 November, Wednesday

    Time Temperature Precipitation Wind Pressure Humidity
    00:00 +18°C° 0 mm 3 mps 706 mmHg 76%
    01:00 +18°C° 0 mm 4 mps 706 mmHg 79%
    02:00 +18°C° 0 mm 4 mps 705 mmHg 82%
    03:00 +16°C° 0 mm 5 mps 705 mmHg 84%
    04:00 +16°C° 0 mm 5 mps 706 mmHg 85%
    05:00 +16°C° 0 mm 5 mps 706 mmHg 85%
    06:00 +16°C° 0 mm 5 mps 706 mmHg 85%
    07:00 +19°C° 0 mm 5 mps 707 mmHg 80%
    08:00 +20°C° 0 mm 5 mps 707 mmHg 74%
    09:00 +22°C° 0 mm 5 mps 707 mmHg 69%
    10:00 +25°C° 0 mm 4 mps 707 mmHg 63%
    11:00 +27°C° 0 mm 4 mps 707 mmHg 57%
    12:00 +29°C° 0 mm 3 mps 707 mmHg 51%
    13:00 +29°C° 0 mm 2 mps 707 mmHg 48%
    14:00 +30°C° 0 mm 2 mps 706 mmHg 45%
    15:00 +31°C° 0 mm 1 mps 706 mmHg 42%
    16:00 +30°C° 0 mm 1 mps 705 mmHg 47%
    17:00 +29°C° 0 mm 2 mps 705 mmHg 52%
    18:00 +28°C° 0 mm 2 mps 705 mmHg 57%
    19:00 +26°C° 0 mm 2 mps 705 mmHg 59%
    20:00 +24°C° 0 mm 2 mps 705 mmHg 62%
    21:00 +21°C° 0 mm 2 mps 705 mmHg 64%
    22:00 +21°C° 0 mm 3 mps 705 mmHg 68%
    23:00 +20°C° 0 mm 4 mps 705 mmHg 73%

    21 November, Thursday

    Time Temperature Precipitation Wind Pressure Humidity
    00:00 +20°C° 0 mm 5 mps 705 mmHg 77%
    01:00 +19°C° 0 mm 5 mps 705 mmHg 80%
    02:00 +19°C° 0 mm 6 mps 704 mmHg 84%
    03:00 +17°C° 0 mm 6 mps 704 mmHg 87%
    04:00 +17°C° 0 mm 6 mps 704 mmHg 87%
    05:00 +17°C° 0 mm 6 mps 704 mmHg 88%
    06:00 +17°C° 0 mm 5 mps 705 mmHg 88%
    07:00 +20°C° 0 mm 5 mps 705 mmHg 82%
    08:00 +21°C° 0 mm 5 mps 705 mmHg 76%
    09:00 +23°C° 0 mm 5 mps 705 mmHg 71%
    10:00 +26°C° 0 mm 4 mps 705 mmHg 65%
    11:00 +28°C° 0 mm 4 mps 705 mmHg 58%
    12:00 +30°C° 0 mm 3 mps 705 mmHg 52%
    13:00 +31°C° 0 mm 2 mps 705 mmHg 49%
    14:00 +32°C° 0 mm 2 mps 704 mmHg 46%
    15:00 +32°C° 0 mm 1 mps 704 mmHg 42%
    16:00 +32°C° 0 mm 1 mps 703 mmHg 46%
    17:00 +31°C° 0 mm 1 mps 703 mmHg 50%
    18:00 +30°C° 0 mm 1 mps 703 mmHg 54%
    19:00 +28°C° 0 mm 1 mps 703 mmHg 57%
    20:00 +26°C° 0 mm 1 mps 703 mmHg 59%
    21:00 +24°C° 0 mm 2 mps 703 mmHg 62%
    22:00 +24°C° 0 mm 2 mps 703 mmHg 64%
    23:00 +23°C° 0 mm 2 mps 703 mmHg 67%

    22 November, Friday

    Time Temperature Precipitation Wind Pressure Humidity
    00:00 +23°C° 0 mm 1 mps 703 mmHg 69%
    01:00 +21°C° 0 mm 2 mps 703 mmHg 70%
    02:00 +20°C° 0 mm 2 mps 703 mmHg 72%
    03:00 +20°C° 0 mm 3 mps 702 mmHg 73%
    04:00 +19°C° 0 mm 3 mps 703 mmHg 77%
    05:00 +19°C° 0 mm 3 mps 703 mmHg 82%
    06:00 +19°C° 0 mm 3 mps 703 mmHg 86%
    07:00 +21°C° 0 mm 3 mps 704 mmHg 80%
    08:00 +25°C° 0 mm 2 mps 704 mmHg 73%
    09:00 +27°C° 0 mm 2 mps 705 mmHg 67%
    10:00 +29°C° 0 mm 1 mps 705 mmHg 60%
    11:00 +30°C° 0 mm 1 mps 705 mmHg 53%
    12:00 +30°C° 0 mm 0 mps 705 mmHg 46%
    13:00 +31°C° 0.1 mm 2 mps 705 mmHg 50%
    14:00 +30°C° 0.1 mm 3 mps 705 mmHg 55%
    15:00 +29°C° 0.1 mm 4 mps 704 mmHg 59%
    16:00 +28°C° 0.5 mm 4 mps 704 mmHg 65%
    17:00 +26°C° 0.5 mm 4 mps 704 mmHg 72%
    18:00 +25°C° 0.5 mm 4 mps 704 mmHg 78%
    19:00 +23°C° 0 mm 4 mps 705 mmHg 82%
    20:00 +22°C° 0 mm 5 mps 705 mmHg 86%
    21:00 +21°C° 0 mm 5 mps 705 mmHg 89%
    22:00 +20°C° 0 mm 5 mps 706 mmHg 89%
    23:00 +20°C° 0 mm 5 mps 706 mmHg 89%

    23 November, Saturday

    Time Temperature Precipitation Wind Pressure Humidity
    00:00 +20°C° 0 mm 5 mps 706 mmHg 88%
    01:00 +19°C° 0 mm 5 mps 706 mmHg 90%
    02:00 +19°C° 0 mm 5 mps 706 mmHg 91%
    03:00 +18°C° 0 mm 4 mps 705 mmHg 92%
    04:00 +18°C° 0 mm 4 mps 705 mmHg 91%
    05:00 +17°C° 0 mm 5 mps 705 mmHg 91%
    06:00 +17°C° 0 mm 5 mps 706 mmHg 91%
    07:00 +20°C° 0 mm 5 mps 706 mmHg 84%
    08:00 +21°C° 0 mm 5 mps 706 mmHg 78%
    09:00 +23°C° 0 mm 5 mps 707 mmHg 72%
    10:00 +26°C° 0 mm 4 mps 707 mmHg 66%
    11:00 +28°C° 0 mm 4 mps 707 mmHg 60%
    12:00 +29°C° 0 mm 3 mps 706 mmHg 54%
    13:00 +30°C° 0 mm 4 mps 706 mmHg 52%
    14:00 +30°C° 0 mm 4 mps 705 mmHg 50%
    15:00 +32°C° 0 mm 4 mps 705 mmHg 48%
    16:00 +29°C° 0 mm 4 mps 704 mmHg 55%
    17:00 +27°C° 0 mm 5 mps 704 mmHg 61%
    18:00 +26°C° 0 mm 5 mps 704 mmHg 68%
    19:00 +23°C° 0 mm 5 mps 704 mmHg 71%
    20:00 +21°C° 0 mm 5 mps 704 mmHg 73%
    21:00 +19°C° 0 mm 6 mps 705 mmHg 76%
    22:00 +19°C° 0 mm 6 mps 705 mmHg 78%
    23:00 +19°C° 0 mm 6 mps 705 mmHg 80%
    Show more